| time (UTC) | temp F | wind direction | speed MPH | gust MPH | rain 1hr in | rain 24hr in | rain mn in | humidity % | barometer mb |
| 20260504014403 | 86 | 213 | 0.0 | 2.0 | 0.00 | 0.00 | 0.00 | 36 | 1006.2 |
| 20260504013903 | 86 | 207 | 0.0 | 3.0 | 0.00 | 0.00 | 0.00 | 33 | 1006.2 |
| 20260504013403 | 87 | 65 | 0.0 | 3.0 | 0.00 | 0.00 | 0.00 | 34 | 1006.3 |
| 20260504012903 | 88 | 231 | 1.0 | 5.0 | 0.00 | 0.00 | 0.00 | 31 | 1006.3 |
| 20260504012403 | 88 | 222 | 0.0 | 5.0 | 0.00 | 0.00 | 0.00 | 34 | 1006.4 |
| 20260504011904 | 89 | 230 | 1.0 | 5.0 | 0.00 | 0.00 | 0.00 | 32 | 1006.4 |
| 20260504011403 | 89 | 221 | 0.0 | 3.0 | 0.00 | 0.00 | 0.00 | 33 | 1006.4 |
| 20260504010403 | 89 | 233 | 1.0 | 3.0 | 0.00 | 0.00 | 0.00 | 30 | 1006.6 |
| 20260504005903 | 89 | 73 | 0.0 | 3.0 | 0.00 | 0.00 | 0.00 | 34 | 1006.5 |
| 20260504005403 | 89 | 266 | 1.0 | 3.0 | 0.00 | 0.00 | 0.00 | 31 | 1006.6 |
| 20260504004904 | 89 | 231 | 1.0 | 3.0 | 0.00 | 0.00 | 0.00 | 33 | 1006.7 |
| 20260504004403 | 89 | 277 | 0.0 | 6.0 | 0.00 | 0.00 | 0.00 | 34 | 1006.6 |
| 20260504003903 | 90 | 231 | 0.0 | 6.0 | 0.00 | 0.00 | 0.00 | 34 | 1006.7 |
| 20260504003403 | 90 | 229 | 1.0 | 5.0 | 0.00 | 0.00 | 0.00 | 34 | 1006.7 |
| 20260504002904 | 90 | 233 | 1.0 | 5.0 | 0.00 | 0.00 | 0.00 | 33 | 1006.8 |
| 20260504002403 | 90 | 4 | 2.0 | 5.0 | 0.00 | 0.00 | 0.00 | 35 | 1006.7 |
| 20260504001903 | 90 | 220 | 1.0 | 5.0 | 0.00 | 0.00 | 0.00 | 32 | 1006.8 |
| 20260504001403 | 90 | 242 | 1.0 | 5.0 | 0.00 | 0.00 | 0.00 | 31 | 1006.8 |
| 20260504000903 | 90 | 249 | 1.0 | 5.0 | 0.00 | 0.00 | 0.00 | 32 | 1006.8 |
| 20260504000403 | 90 | 250 | 3.0 | 5.0 | 0.00 | 0.00 | 0.00 | 30 | 1006.8 |
| 20260503235903 | 90 | 233 | 1.0 | 5.0 | 0.00 | 0.00 | 0.00 | 31 | 1006.8 |
| 20260503235404 | 90 | 269 | 1.0 | 6.0 | 0.00 | 0.00 | 0.00 | 32 | 1006.9 |
| 20260503234904 | 90 | 244 | 1.0 | 6.0 | 0.00 | 0.00 | 0.00 | 31 | 1007.0 |
| 20260503234403 | 90 | 227 | 3.0 | 6.0 | 0.00 | 0.00 | 0.00 | 28 | 1007.0 |
| 20260503233904 | 90 | 46 | 1.0 | 5.0 | 0.00 | 0.00 | 0.00 | 30 | 1007.1 |
| 20260503233403 | 90 | 250 | 1.0 | 9.0 | 0.00 | 0.00 | 0.00 | 29 | 1007.1 |
| 20260503232403 | 90 | 229 | 2.0 | 7.0 | 0.00 | 0.00 | 0.00 | 30 | 1007.3 |
| 20260503231903 | 90 | 270 | 2.0 | 6.0 | 0.00 | 0.00 | 0.00 | 28 | 1007.3 |
| 20260503231403 | 91 | 197 | 2.0 | 6.0 | 0.00 | 0.00 | 0.00 | 28 | 1007.3 |
| 20260503230903 | 91 | 190 | 1.0 | 5.0 | 0.00 | 0.00 | 0.00 | 31 | 1007.5 |
| 20260503225905 | 91 | 57 | 1.0 | 5.0 | 0.00 | 0.00 | 0.00 | 35 | 1007.6 |
| 20260503225403 | 91 | 264 | 1.0 | 7.0 | 0.00 | 0.00 | 0.00 | 30 | 1007.6 |
| 20260503224903 | 91 | 255 | 0.0 | 7.0 | 0.00 | 0.00 | 0.00 | 33 | 1007.7 |
| 20260503223903 | 91 | 256 | 1.0 | 3.0 | 0.00 | 0.00 | 0.00 | 30 | 1007.9 |
| 20260503222904 | 91 | 351 | 1.0 | 7.0 | 0.00 | 0.00 | 0.00 | 28 | 1008.0 |
| 20260503222404 | 91 | 39 | 2.0 | 7.0 | 0.00 | 0.00 | 0.00 | 29 | 1008.0 |
| 20260503221904 | 91 | 253 | 1.0 | 3.0 | 0.00 | 0.00 | 0.00 | 31 | 1008.1 |
| 20260503221403 | 91 | 255 | 0.0 | 2.0 | 0.00 | 0.00 | 0.00 | 28 | 1008.2 |
| 20260503220903 | 90 | 69 | 0.0 | 5.0 | 0.00 | 0.00 | 0.00 | 32 | 1008.3 |
| 20260503220403 | 90 | 39 | 0.0 | 7.0 | 0.00 | 0.00 | 0.00 | 30 | 1008.3 |
| 20260503215904 | 90 | 250 | 1.0 | 7.0 | 0.00 | 0.00 | 0.00 | 34 | 1008.4 |
| 20260503215403 | 90 | 19 | 3.0 | 7.0 | 0.00 | 0.00 | 0.00 | 30 | 1008.5 |
| 20260503214903 | 90 | 241 | 1.0 | 5.0 | 0.00 | 0.00 | 0.00 | 29 | 1008.5 |
| 20260503214403 | 90 | 24 | 3.0 | 5.0 | 0.00 | 0.00 | 0.00 | 30 | 1008.6 |
| 20260503213403 | 90 | 160 | 1.0 | 3.0 | 0.00 | 0.00 | 0.00 | 35 | 1008.6 |
| 20260503212403 | 89 | 281 | 2.0 | 3.0 | 0.00 | 0.00 | 0.00 | 33 | 1008.7 |
| 20260503211903 | 89 | 317 | 1.0 | 3.0 | 0.00 | 0.00 | 0.00 | 34 | 1008.8 |
| 20260503211403 | 88 | 231 | 1.0 | 3.0 | 0.00 | 0.00 | 0.00 | 35 | 1008.9 |
| 20260503210903 | 88 | 249 | 1.0 | 6.0 | 0.00 | 0.00 | 0.00 | 33 | 1009.0 |
| 20260503210403 | 88 | 41 | 2.0 | 6.0 | 0.00 | 0.00 | 0.00 | 34 | 1009.1 |
| 20260503205904 | 87 | 29 | 2.0 | 6.0 | 0.00 | 0.00 | 0.00 | 37 | 1009.2 |
| 20260503205404 | 87 | 258 | 2.0 | 6.0 | 0.00 | 0.00 | 0.00 | 37 | 1009.2 |
| 20260503204903 | 87 | 246 | 1.0 | 6.0 | 0.00 | 0.00 | 0.00 | 37 | 1009.3 |
| 20260503204405 | 86 | 246 | 0.0 | 5.0 | 0.00 | 0.00 | 0.00 | 38 | 1009.4 |
| 20260503203903 | 86 | 230 | 1.0 | 6.0 | 0.00 | 0.00 | 0.00 | 37 | 1009.4 |
| 20260503203403 | 86 | 105 | 2.0 | 6.0 | 0.00 | 0.00 | 0.00 | 35 | 1009.4 |
| 20260503202904 | 85 | 13 | 1.0 | 5.0 | 0.00 | 0.00 | 0.00 | 40 | 1009.6 |
| 20260503202403 | 85 | 225 | 1.0 | 7.0 | 0.00 | 0.00 | 0.00 | 45 | 1009.6 |
| 20260503201904 | 84 | 215 | 1.0 | 7.0 | 0.00 | 0.00 | 0.00 | 44 | 1009.7 |
| 20260503200903 | 84 | 246 | 1.0 | 3.0 | 0.00 | 0.00 | 0.00 | 44 | 1009.8 |
| 20260503200404 | 84 | 208 | 1.0 | 5.0 | 0.00 | 0.00 | 0.00 | 45 | 1009.9 |
| 20260503195903 | 83 | 218 | 2.0 | 5.0 | 0.00 | 0.00 | 0.00 | 47 | 1009.9 |
| 20260503195402 | 83 | 218 | 2.0 | 5.0 | 0.00 | 0.00 | 0.00 | 46 | 1010.1 |
| 20260503194903 | 83 | 221 | 1.0 | 5.0 | 0.00 | 0.00 | 0.00 | 47 | 1010.1 |
| 20260503194403 | 83 | 206 | 1.0 | 5.0 | 0.00 | 0.00 | 0.00 | 45 | 1010.1 |
| 20260503193903 | 83 | 334 | 1.0 | 3.0 | 0.00 | 0.00 | 0.00 | 51 | 1010.2 |
| 20260503193404 | 82 | 328 | 0.0 | 2.0 | 0.00 | 0.00 | 0.00 | 50 | 1010.2 |
| 20260503192903 | 82 | 263 | 1.0 | 2.0 | 0.00 | 0.00 | 0.00 | 51 | 1010.2 |
| 20260503192403 | 81 | 312 | 0.0 | 3.0 | 0.00 | 0.00 | 0.00 | 52 | 1010.3 |
| 20260503191904 | 81 | 332 | 0.0 | 3.0 | 0.00 | 0.00 | 0.00 | 53 | 1010.3 |
| 20260503190904 | 80 | 286 | 1.0 | 3.0 | 0.00 | 0.00 | 0.00 | 51 | 1010.5 |
| 20260503190403 | 80 | 280 | 1.0 | 3.0 | 0.00 | 0.00 | 0.00 | 52 | 1010.5 |
| 20260503185903 | 79 | 288 | 0.0 | 3.0 | 0.00 | 0.00 | 0.00 | 53 | 1010.6 |
| 20260503184403 | 78 | 343 | 1.0 | 3.0 | 0.00 | 0.00 | 0.00 | 57 | 1010.8 |
| 20260503183403 | 77 | 291 | 0.0 | 5.0 | 0.00 | 0.00 | 0.00 | 59 | 1011.0 |
| 20260503182403 | 76 | 264 | 1.0 | 3.0 | 0.00 | 0.00 | 0.00 | 59 | 1011.1 |
| 20260503181403 | 76 | 296 | 0.0 | 3.0 | 0.00 | 0.00 | 0.00 | 61 | 1011.2 |
| 20260503180904 | 75 | 279 | 0.0 | 3.0 | 0.00 | 0.00 | 0.00 | 61 | 1011.1 |
| 20260503175903 | 74 | 269 | 1.0 | 3.0 | 0.00 | 0.00 | 0.00 | 61 | 1011.2 |
| 20260503175403 | 74 | 183 | 1.0 | 2.0 | 0.00 | 0.00 | 0.00 | 61 | 1011.3 |
| 20260503174903 | 73 | 246 | 0.0 | 2.0 | 0.00 | 0.00 | 0.00 | 64 | 1011.4 |
| 20260503174403 | 73 | 233 | 0.0 | 3.0 | 0.00 | 0.00 | 0.00 | 64 | 1011.4 |
| 20260503173904 | 72 | 255 | 1.0 | 3.0 | 0.00 | 0.00 | 0.00 | 63 | 1011.4 |
| 20260503173403 | 72 | 261 | 1.0 | 3.0 | 0.00 | 0.00 | 0.00 | 65 | 1011.5 |
| 20260503172904 | 72 | 225 | 1.0 | 3.0 | 0.00 | 0.00 | 0.00 | 63 | 1011.5 |
| 20260503171903 | 71 | 248 | 1.0 | 3.0 | 0.00 | 0.00 | 0.00 | 65 | 1011.5 |
| 20260503171403 | 71 | 212 | 1.0 | 3.0 | 0.00 | 0.00 | 0.00 | 70 | 1011.6 |
| 20260503170903 | 71 | 227 | 0.0 | 3.0 | 0.00 | 0.00 | 0.00 | 68 | 1011.7 |
| 20260503170403 | 70 | 242 | 0.0 | 2.0 | 0.00 | 0.00 | 0.00 | 71 | 1011.7 |
| 20260503150903 | 62 | 105 | 0.0 | 0.0 | 0.00 | 0.00 | 0.00 | 85 | 1012.1 |
| 20260503150403 | 61 | 61 | 0.0 | 0.0 | 0.00 | 0.00 | 0.00 | 86 | 1012.2 |
| 20260503131403 | 48 | 122 | 0.0 | 0.0 | 0.00 | 0.01 | 0.00 | 95 | 1011.8 |
| 20260503130403 | 47 | 122 | 0.0 | 0.0 | 0.00 | 0.01 | 0.00 | 94 | 1011.7 |
| 20260503110404 | 50 | 81 | 0.0 | 0.0 | 0.00 | 0.01 | 0.00 | 94 | 1012.1 |
| 20260503090403 | 52 | 78 | 0.0 | 0.0 | 0.00 | 0.02 | 0.00 | 92 | 1012.2 |
| 20260503081403 | 54 | 67 | 0.0 | 0.0 | 0.00 | 0.03 | 0.00 | 92 | 1012.3 |
| 20260503080903 | 54 | 67 | 0.0 | 0.0 | 0.00 | 0.03 | 0.00 | 91 | 1012.3 |
| 20260503080404 | 54 | 74 | 0.0 | 0.0 | 0.00 | 0.03 | 0.00 | 91 | 1012.3 |
| 20260503072903 | 55 | 78 | 0.0 | 0.0 | 0.00 | 0.03 | 0.00 | 90 | 1012.4 |
| 20260503071403 | 56 | 80 | 0.0 | 0.0 | 0.00 | 0.03 | 0.00 | 89 | 1012.4 |
| 20260503070904 | 56 | 90 | 0.0 | 0.0 | 0.00 | 0.03 | 0.00 | 89 | 1012.5 |
| 20260503070404 | 57 | 144 | 0.0 | 0.0 | 0.00 | 0.03 | 0.00 | 89 | 1012.4 |
| 20260503054904 | 59 | 43 | 0.0 | 0.0 | 0.00 | 0.03 | 0.03 | 86 | 1012.1 |
| 20260503053903 | 59 | 43 | 0.0 | 0.0 | 0.00 | 0.03 | 0.03 | 85 | 1012.4 |
| 20260503052903 | 59 | 43 | 0.0 | 0.0 | 0.00 | 0.03 | 0.03 | 85 | 1012.5 |
| 20260503052403 | 60 | 43 | 0.0 | 0.0 | 0.00 | 0.03 | 0.03 | 84 | 1012.5 |
| 20260503051904 | 60 | 32 | 0.0 | 0.0 | 0.00 | 0.03 | 0.03 | 84 | 1012.5 |
| 20260503051403 | 60 | 94 | 0.0 | 0.0 | 0.00 | 0.03 | 0.03 | 84 | 1012.6 |
| 20260503050903 | 60 | 143 | 0.0 | 0.0 | 0.00 | 0.03 | 0.03 | 84 | 1012.6 |
| 20260503050403 | 60 | 85 | 0.0 | 0.0 | 0.00 | 0.03 | 0.03 | 84 | 1012.6 |
| 20260503045404 | 61 | 38 | 0.0 | 0.0 | 0.00 | 0.03 | 0.03 | 83 | 1012.7 |
| 20260503044904 | 61 | 38 | 0.0 | 0.0 | 0.00 | 0.03 | 0.03 | 81 | 1012.6 |
| 20260503043903 | 62 | 80 | 0.0 | 0.0 | 0.00 | 0.03 | 0.03 | 80 | 1012.5 |
| 20260503043403 | 62 | 80 | 0.0 | 0.0 | 0.00 | 0.03 | 0.03 | 79 | 1012.6 |
| 20260503042903 | 62 | 80 | 0.0 | 0.0 | 0.00 | 0.03 | 0.03 | 79 | 1012.6 |
| 20260503042403 | 63 | 80 | 0.0 | 0.0 | 0.00 | 0.03 | 0.03 | 78 | 1012.6 |
| 20260503041403 | 63 | 80 | 0.0 | 0.0 | 0.00 | 0.03 | 0.03 | 76 | 1012.5 |
| 20260503040903 | 63 | 80 | 0.0 | 0.0 | 0.00 | 0.03 | 0.03 | 76 | 1012.6 |
| 20260503035903 | 64 | 80 | 0.0 | 2.0 | 0.00 | 0.03 | 0.03 | 75 | 1012.6 |
| 20260503035403 | 64 | 126 | 0.0 | 0.0 | 0.00 | 0.03 | 0.03 | 73 | 1012.5 |
| 20260503034903 | 65 | 118 | 0.0 | 0.0 | 0.00 | 0.03 | 0.03 | 72 | 1012.4 |
| 20260503033404 | 66 | 182 | 0.0 | 0.0 | 0.00 | 0.03 | 0.03 | 71 | 1012.4 |
| 20260503032904 | 66 | 231 | 0.0 | 0.0 | 0.00 | 0.03 | 0.03 | 70 | 1012.3 |
| 20260503032403 | 66 | 211 | 0.0 | 0.0 | 0.00 | 0.03 | 0.03 | 69 | 1012.4 |
| 20260503031903 | 67 | 201 | 0.0 | 5.0 | 0.00 | 0.03 | 0.03 | 68 | 1012.3 |
| 20260503031403 | 67 | 226 | 0.0 | 6.0 | 0.00 | 0.03 | 0.03 | 67 | 1012.3 |
| 20260503030903 | 67 | 199 | 1.0 | 7.0 | 0.00 | 0.03 | 0.03 | 67 | 1012.1 |
| 20260503030404 | 68 | 252 | 0.0 | 7.0 | 0.00 | 0.03 | 0.03 | 67 | 1012.2 |
| 20260503025903 | 68 | 295 | 0.0 | 2.0 | 0.00 | 0.03 | 0.03 | 66 | 1012.0 |
| 20260503025403 | 68 | 235 | 0.0 | 5.0 | 0.00 | 0.03 | 0.03 | 68 | 1011.8 |
| 20260503024903 | 69 | 136 | 1.0 | 5.0 | 0.00 | 0.03 | 0.03 | 67 | 1011.8 |
| 20260503024403 | 69 | 162 | 0.0 | 5.0 | 0.00 | 0.03 | 0.03 | 66 | 1011.7 |
| 20260503023904 | 69 | 47 | 0.0 | 2.0 | 0.00 | 0.03 | 0.03 | 67 | 1011.6 |
| 20260503023403 | 69 | 128 | 0.0 | 2.0 | 0.00 | 0.03 | 0.03 | 66 | 1011.7 |
| 20260503022403 | 70 | 145 | 0.0 | 2.0 | 0.00 | 0.03 | 0.03 | 65 | 1011.3 |
| 20260503021903 | 70 | 133 | 0.0 | 6.0 | 0.00 | 0.03 | 0.03 | 65 | 1011.2 |
| 20260503021403 | 70 | 79 | 1.0 | 6.0 | 0.00 | 0.03 | 0.03 | 64 | 1011.1 |
| 20260503020903 | 71 | 115 | 0.0 | 2.0 | 0.00 | 0.03 | 0.03 | 63 | 1011.1 |
| 20260503020404 | 71 | 121 | 0.0 | 5.0 | 0.00 | 0.03 | 0.03 | 62 | 1011.0 |
| 20260503015904 | 72 | 70 | 1.0 | 5.0 | 0.00 | 0.03 | 0.03 | 61 | 1010.9 |
| 20260503015403 | 73 | 113 | 0.0 | 3.0 | 0.00 | 0.03 | 0.03 | 60 | 1010.8 |
| 20260503014904 | 74 | 87 | 2.0 | 3.0 | 0.00 | 0.03 | 0.03 | 59 | 1010.8 |